Theta_e
299 300 300 301 301 301 301 300 300 300 301 303 303 304 304 308 304 302 310 312 309 310 312 313 315 317 317 317 318 320 321 322 324 325 324 324 324 326 325 326 327 328 326 328 329 331 333 336 338 340 342 344 348 350 352 355 356 357 359 359 355 357 356 357 362 364 364 362 363 361 361 361 360 356 353 354 354 353 352 350 349 348 346 344 346 350 352
298 299 299 300 299 299 299 300 300 300 300 301 302 303 304 306 309 311 311 312 309 311 313 314 315 318 318 318 321 321 321 320 323 323 323 323 323 324 324 326 326 328 328 330 329 330 332 334 335 337 339 342 344 346 348 352 355 356 357 355 356 356 356 358 359 361 364 364 364 363 362 363 366 363 358 355 351 352 351 350 353 355 353 348 344 346 350
297 298 298 298 298 298 298 299 300 299 300 300 301 302 304 307 307 308 310 309 309 312 316 315 317 318 318 319 318 318 319 320 320 321 322 323 323 324 325 327 326 328 329 329 330 330 330 331 332 333 337 340 341 343 346 349 352 355 358 355 353 357 355 356 358 360 362 362 365 365 367 364 365 366 365 362 362 361 357 355 357 362 357 350 346 343 345
296 298 297 297 298 297 297 298 298 299 298 298 300 300 304 304 305 308 308 307 307 312 315 316 317 317 317 316 318 318 319 319 320 320 321 322 323 324 325 326 327 328 327 329 329 329 329 330 330 332 336 337 337 339 345 346 350 356 356 354 356 356 355 355 357 357 360 362 364 363 364 366 366 368 367 365 364 363 357 355 362 356 355 355 356 350 347
295 298 297 296 296 296 293 295 298 300 300 301 302 303 305 306 307 305 304 306 311 312 315 314 314 315 315 316 316 317 319 320 319 321 322 323 323 324 325 326 327 327 328 329 330 329 331 332 333 333 333 335 337 340 344 347 351 352 352 353 353 356 356 356 357 356 357 360 364 364 362 364 366 366 367 366 364 361 358 360 359 362 363 358 359 358 353
296 297 297 296 293 288 290 301 303 302 300 301 300 301 302 307 309 307 311 311 314 314 314 314 312 313 315 317 318 320 319 318 320 319 322 322 324 324 324 325 326 328 329 330 330 332 332 332 332 331 333 333 336 339 343 346 348 349 349 351 351 351 355 355 356 360 358 355 359 363 364 364 363 365 366 366 364 362 361 362 361 360 360 361 361 363 360
296 298 297 291 287 290 301 304 304 304 304 303 302 303 303 307 307 311 312 312 313 314 314 314 315 316 316 317 318 318 318 321 319 319 320 321 322 323 324 325 325 328 329 330 331 331 331 332 332 333 333 333 334 337 340 341 343 345 347 348 348 349 351 354 358 359 360 356 356 358 364 363 363 365 364 366 365 363 360 359 361 361 360 361 361 362 361
299 297 294 284 288 300 303 302 304 305 303 302 302 303 306 307 306 310 310 312 312 313 313 314 316 316 316 317 318 319 319 320 321 319 318 319 320 321 322 324 325 327 327 328 330 330 334 332 332 333 332 333 332 335 339 340 342 343 344 345 346 348 349 353 355 355 355 356 358 358 363 363 362 361 364 365 365 365 362 358 359 360 362 362 361 360 361
293 295 293 293 301 299 300 299 302 301 300 301 299 296 301 305 308 308 309 311 312 312 313 313 314 315 314 313 316 318 317 317 319 319 319 319 320 320 322 322 324 326 326 327 329 332 332 333 332 331 333 334 332 332 335 338 341 341 342 340 341 343 347 348 350 351 353 353 355 357 357 354 357 357 359 362 363 365 362 360 356 356 359 360 363 361 361
298 295 292 293 293 289 296 302 305 306 309 310 308 304 302 307 310 310 311 311 310 310 310 311 312 310 308 306 311 316 317 317 317 317 317 318 319 319 320 322 322 326 326 325 326 329 331 333 333 333 333 332 333 333 333 334 337 339 338 338 338 340 340 342 344 348 350 352 353 354 352 352 353 357 357 356 355 362 361 359 358 355 355 359 361 362 361
297 294 291 291 289 293 302 303 306 308 309 308 306 301 297 309 310 309 310 309 309 310 309 311 309 305 303 306 312 316 317 317 316 315 316 316 317 317 318 319 319 321 324 324 326 327 328 328 330 334 334 334 333 332 332 332 335 337 337 337 337 338 339 340 342 344 347 350 352 351 349 351 353 352 354 354 357 358 358 357 357 358 358 357 358 359 359
297 295 291 289 296 296 304 306 306 306 308 305 304 291 292 309 310 309 309 310 309 310 311 310 308 306 303 307 312 314 315 314 316 315 315 316 316 316 317 318 320 322 323 324 323 324 323 326 329 332 331 331 332 332 332 332 332 334 336 336 337 339 340 341 341 342 345 348 349 350 350 351 353 353 355 356 356 357 356 357 356 356 356 356 358 358 357
294 294 294 295 297 306 308 306 307 307 305 303 294 289 303 311 311 311 311 311 311 312 311 309 306 310 311 312 312 312 313 312 313 315 315 316 315 316 316 317 321 319 320 320 320 322 325 327 326 328 330 329 329 331 332 331 330 331 333 336 337 338 339 340 340 341 344 346 346 349 351 353 353 352 354 356 356 354 353 355 355 356 355 355 354 358 358
294 295 293 292 296 307 310 309 308 308 301 292 291 306 313 312 311 311 311 310 311 310 310 309 309 311 311 311 310 311 311 310 312 313 314 315 316 317 318 320 319 319 318 319 321 321 324 323 324 326 328 328 329 330 330 330 332 331 333 334 336 338 338 338 340 342 343 345 346 347 350 353 354 353 355 358 355 353 353 352 352 354 357 358 356 357 360
297 296 294 291 287 304 311 308 306 307 297 301 310 311 313 313 312 311 310 310 310 310 309 309 310 310 309 309 310 310 311 311 311 312 313 313 314 315 317 318 319 318 318 319 318 319 320 321 323 325 325 327 328 329 328 330 331 332 332 333 335 335 336 336 338 340 343 344 345 346 347 350 350 352 354 355 357 356 354 352 351 353 356 359 358 357 359
292 293 290 291 300 307 312 308 301 306 305 312 313 311 309 311 311 309 310 311 311 311 309 309 308 309 309 309 310 311 311 311 313 313 314 315 315 315 315 316 318 319 319 319 318 319 319 322 323 324 326 326 327 328 330 332 332 332 332 333 334 333 333 334 336 339 341 343 343 346 348 350 351 351 352 353 354 356 356 354 354 352 353 354 355 355 356
298 296 299 305 308 310 311 310 310 312 313 315 314 312 311 311 310 312 310 310 312 312 311 310 309 308 309 309 310 309 309 310 311 312 313 313 314 314 315 315 318 318 318 318 319 320 320 322 323 325 325 325 326 326 330 334 333 332 332 331 331 331 332 333 334 335 337 340 344 345 346 347 347 348 349 349 347 351 351 350 351 350 352 354 355 355 354
307 307 308 310 309 310 310 309 311 312 314 315 313 311 308 309 310 311 310 311 311 311 312 309 310 309 309 309 309 310 310 310 310 313 313 313 315 314 315 316 317 318 317 318 318 319 321 323 323 324 324 324 324 326 330 332 333 332 331 331 330 331 331 332 332 333 333 336 342 344 343 345 346 347 348 349 349 349 346 345 347 349 347 349 352 353 354
299 294 307 306 307 309 310 309 311 313 315 314 312 310 309 310 311 311 310 311 311 311 311 310 310 309 309 309 309 311 311 310 312 312 313 314 314 315 315 316 317 316 317 316 317 318 319 322 322 322 323 323 325 327 328 329 330 331 332 331 330 330 331 330 332 333 334 334 336 338 340 341 342 343 346 349 350 347 346 344 345 345 346 348 350 351 352
299 300 306 308 310 310 310 309 309 310 312 313 313 312 312 312 312 312 312 312 310 311 310 311 310 310 310 309 310 310 310 311 312 312 312 314 314 315 316 316 317 316 316 316 317 318 318 320 321 322 323 324 325 326 326 327 330 331 330 330 328 328 329 331 331 331 332 334 334 334 336 338 337 340 342 344 345 348 346 347 344 342 340 341 344 346 348
303 305 306 307 309 310 310 310 311 311 312 312 312 313 312 312 311 311 311 312 311 310 310 311 310 310 310 311 311 310 311 311 312 312 313 314 315 315 315 316 316 315 316 316 317 317 317 319 320 321 322 323 325 326 326 327 329 329 328 328 328 328 328 329 330 331 331 332 332 330 331 335 337 340 341 340 339 340 344 347 347 345 342 343 344 344 345
299 300 304 307 300 301 307 309 310 310 312 311 311 312 311 311 311 312 311 311 312 310 310 311 310 310 310 311 312 311 311 311 312 313 313 313 313 314 315 315 315 315 316 315 315 317 318 319 320 321 322 323 325 325 326 327 328 328 327 327 326 326 327 328 330 330 330 329 329 331 331 331 334 336 337 324 332 339 338 337 327 318 318 334 339 343 344
298 306 309 310 308 307 308 309 311 312 312 312 310 311 311 312 312 312 312 310 311 311 312 312 311 311 311 311 312 310 310 311 312 313 313 312 312 312 313 313 313 314 314 315 315 316 317 319 319 320 321 323 324 325 326 327 327 327 327 325 324 325 326 327 328 328 329 330 332 332 331 331 333 333 334 339 315 309 318 325 321 314 307 305 306 311 328
307 310 310 311 309 306 309 311 312 311 313 311 311 311 312 312 312 312 311 312 311 311 312 312 312 311 311 310 310 310 311 311 312 312 312 312 312 312 313 313 313 314 315 315 315 315 317 318 318 319 319 321 323 324 326 327 327 327 326 325 323 323 324 325 326 327 328 330 331 331 332 332 332 330 331 330 333 320 307 310 312 306 304 303 303 303 305
306 312 311 311 312 312 312 313 313 313 313 313 311 311 311 311 311 311 311 312 313 312 311 310 310 311 310 309 310 310 310 310 311 311 312 312 312 312 313 313 313 313 314 315 315 315 316 316 317 319 319 320 322 323 325 326 327 326 326 325 325 323 324 324 324 326 325 328 330 330 330 330 330 331 329 328 327 329 339 307 303 306 307 306 306 305 304
311 310 311 312 312 312 314 313 312 312 313 312 311 312 312 313 312 312 311 312 312 312 311 310 309 310 310 309 309 309 309 310 311 311 311 310 311 311 311 312 313 314 314 314 315 316 316 317 316 317 318 319 321 323 323 324 325 326 325 325 325 324 323 324 324 324 325 326 327 328 329 329 329 329 329 329 328 328 328 330 338 323 307 304 303 304 303
311 312 310 308 307 309 311 310 309 313 313 313 312 311 312 313 313 313 313 313 312 312 311 311 310 310 310 310 309 309 309 310 311 311 310 310 309 310 311 313 313 314 316 316 316 316 318 317 317 317 316 319 320 322 324 325 325 326 326 326 326 325 324 324 323 323 324 325 325 326 327 327 326 327 328 328 328 327 327 327 330 331 335 344 320 305 331
312 312 311 305 305 307 308 312 313 312 311 311 312 311 311 312 312 311 310 310 311 311 311 311 310 309 309 309 309 309 309 310 309 309 309 310 310 312 313 313 314 314 315 316 317 317 317 317 316 316 318 320 321 323 323 324 325 324 325 325 324 323 323 323 323 323 323 324 324 324 325 325 325 325 325 326 326 327 327 328 330 332 334 336 339 329 320
312 313 314 313 312 312 312 312 313 312 312 312 313 311 310 309 309 309 309 309 310 310 309 310 310 310 309 309 310 309 308 308 308 308 309 311 312 312 313 312 313 314 316 317 317 317 317 317 316 315 317 319 320 322 323 323 323 323 323 323 322 322 322 322 323 323 323 324 324 324 322 322 322 324 325 326 327 328 329 329 329 331 332 335 338 340 333
312 313 312 312 312 311 310 310 311 311 312 312 310 310 310 308 307 307 308 309 309 308 309 309 309 309 309 308 309 308 308 307 308 309 309 310 312 312 312 312 312 314 315 315 315 316 316 316 317 316 317 320 321 323 322 322 322 323 322 322 322 321 321 322 322 323 322 321 321 320 321 322 324 326 326 326 328 327 327 328 328 328 330 332 332 334 336
311 312 312 313 312 312 310 310 311 311 312 312 311 310 309 309 307 307 308 309 309 308 309 308 308 308 308 309 309 310 309 309 309 309 309 311 311 311 311 311 309 309 310 311 312 313 315 316 318 318 319 320 320 321 323 323 323 322 321 320 321 319 318 318 319 319 319 319 320 320 321 322 323 324 324 324 325 325 327 328 328 329 329 330 331 332 334
308 309 310 310 309 310 310 311 312 311 309 311 311 310 310 309 307 307 308 308 308 309 309 308 308 307 308 309 310 309 309 309 309 309 309 309 310 311 311 310 310 311 311 312 312 313 313 314 314 316 318 318 318 319 320 320 322 320 318 319 319 320 319 319 319 319 319 320 320 320 320 321 322 323 323 323 324 324 326 327 327 327 328 327 328 331 332
304 304 305 307 307 307 307 309 310 310 310 309 308 309 310 310 309 309 309 308 308 308 308 308 308 308 309 309 309 309 308 308 308 307 307 307 308 309 310 310 310 310 310 311 312 312 312 311 312 314 315 316 316 317 318 318 318 317 317 317 318 318 318 317 317 317 318 318 319 319 320 320 321 321 322 322 323 323 323 324 325 325 326 326 327 329 324
304 304 306 307 308 307 306 306 307 309 310 310 310 310 308 309 311 309 309 308 308 308 308 308 308 309 308 308 309 308 308 307 305 305 306 305 306 308 309 309 310 310 310 311 311 311 311 312 312 313 313 313 314 315 316 316 316 316 316 316 316 315 316 317 318 318 318 318 319 320 320 320 320 320 320 320 321 321 321 321 322 322 323 324 325 327 315
307 307 308 308 310 311 310 309 309 308 309 309 309 309 310 311 310 308 309 308 307 307 308 308 308 309 309 308 307 307 306 305 305 306 306 305 305 306 308 308 308 308 308 309 309 310 311 310 311 311 311 311 311 312 313 314 314 314 315 315 316 316 315 316 317 317 317 317 318 318 319 319 319 320 320 320 319 319 319 320 320 320 321 321 322 323 321
306 305 307 308 309 310 310 310 310 311 311 310 310 309 310 310 310 309 307 308 308 308 307 307 308 308 307 306 305 305 305 304 305 305 305 305 305 306 307 307 306 305 305 306 308 309 308 309 312 312 310 310 311 312 312 312 312 312 313 313 314 314 314 315 315 316 316 316 317 317 317 318 318 318 317 318 317 318 318 318 318 318 318 318 318 318 318
307 306 306 307 309 310 310 310 313 313 311 310 310 310 310 310 308 309 309 308 307 307 308 308 307 305 304 305 305 305 304 304 304 304 304 305 305 304 304 305 305 304 303 302 305 307 308 309 310 310 309 309 310 310 312 313 312 311 311 311 311 312 312 313 314 314 314 316 316 316 317 317 316 316 316 316 316 316 316 316 316 315 315 315 315 315 314
306 306 306 307 309 310 311 312 313 313 312 309 309 310 310 309 308 308 308 308 307 307 307 306 305 305 305 305 305 303 303 304 304 304 304 304 304 303 303 303 303 303 301 302 305 305 307 308 308 308 308 308 308 308 310 311 312 310 310 310 310 311 311 312 312 313 313 313 314 315 315 315 314 314 314 314 315 314 314 314 313 312 312 312 313 312 311
304 306 306 307 310 312 313 312 312 311 310 308 308 309 309 308 309 309 307 307 307 307 307 306 305 305 304 303 302 303 303 303 303 303 303 304 304 302 301 302 303 303 303 305 305 305 306 307 307 306 307 307 307 307 308 309 311 309 309 309 309 309 310 310 310 311 312 312 313 313 314 313 313 313 313 312 312 312 312 312 310 309 309 309 309 309 308
304 304 305 305 307 310 311 310 309 309 309 311 309 308 307 307 306 306 306 306 307 307 306 305 304 303 303 302 302 302 303 303 303 303 303 303 303 302 301 303 304 303 304 304 306 305 306 305 306 305 305 306 305 305 307 307 308 308 307 307 308 308 309 309 309 309 310 310 311 312 312 312 312 312 311 311 310 310 310 310 309 308 308 308 307 307 305
303 303 304 305 306 308 309 308 306 306 306 306 307 307 307 307 307 306 305 305 306 306 306 305 303 302 303 303 303 303 303 303 303 303 303 303 301 300 299 298 302 303 304 304 305 305 305 305 305 304 304 304 304 306 306 306 306 306 306 306 307 307 307 308 308 309 309 309 310 309 309 310 310 310 310 310 309 309 308 308 307 306 306 305 305 304 304
303 304 305 306 308 309 309 309 307 306 306 307 307 307 307 307 307 306 306 306 306 305 305 305 304 305 304 304 304 303 303 303 303 303 303 302 301 299 298 299 302 303 303 303 305 304 304 304 304 304 303 303 304 305 305 305 304 305 305 306 306 307 307 307 307 308 309 309 308 308 308 308 308 307 308 307 307 306 306 306 305 305 305 304 304 303 303
303 303 305 305 307 309 308 308 307 305 304 306 307 308 307 306 306 305 305 306 306 305 305 305 303 303 304 304 303 302 302 303 302 302 302 302 303 302 300 300 301 303 302 304 303 303 302 302 302 302 303 303 303 303 304 303 304 304 304 304 305 306 306 307 307 307 307 307 307 307 307 306 306 306 305 304 304 305 305 304 303 303 303 302 302 302 301
301 302 303 304 305 307 308 308 306 306 304 305 307 308 308 307 307 306 306 305 306 306 305 305 304 304 304 303 302 302 301 301 301 301 300 300 301 302 303 301 301 302 301 302 302 301 301 301 301 301 303 303 303 303 303 303 304 304 305 304 304 305 305 305 306 306 306 306 306 306 305 305 305 304 304 303 303 303 303 303 302 302 302 301 301 301 300
302 304 305 305 306 306 306 306 304 304 305 306 306 306 307 307 307 307 306 306 305 305 305 305 304 304 304 304 304 303 303 302 302 301 298 298 297 298 301 301 301 301 301 301 301 300 300 300 300 301 301 301 302 302 302 302 302 302 303 303 303 304 304 304 305 305 305 305 305 305 305 304 304 303 303 303 303 302 302 301 301 301 301 300 300 300 300
303 304 306 305 307 307 306 307 308 306 306 306 306 306 307 308 306 306 306 306 305 305 306 306 305 305 304 304 305 304 304 303 303 303 302 300 298 300 302 301 302 301 301 301 301 300 300 300 300 300 300 300 301 301 301 300 301 301 301 301 301 302 304 304 304 304 304 304 304 304 304 304 303 303 303 302 302 302 300 301 301 301 300 300 300 300 300
303 302 304 306 307 308 309 307 308 306 306 306 305 304 307 308 308 307 306 306 306 306 306 306 306 305 306 305 304 303 301 300 302 302 303 302 302 301 301 301 301 301 301 301 300 300 299 299 299 299 299 300 300 300 299 299 299 299 299 300 300 300 301 302 302 302 303 302 303 304 303 303 303 302 302 302 302 301 301 301 300 299 299 298 297 297 297
303 304 305 306 307 305 304 303 304 306 305 306 305 305 306 308 309 308 306 306 306 306 306 306 305 305 306 305 305 304 303 301 299 300 303 302 302 302 302 301 301 301 301 301 300 300 300 299 299 299 299 299 299 298 298 298 298 298 297 298 299 299 299 300 300 301 301 302 302 302 302 301 301 301 302 301 301 301 301 300 298 298 297 297 296 296 296
306 306 307 308 308 305 304 304 304 306 305 308 306 306 307 307 307 307 307 306 305 305 304 304 304 305 305 305 304 304 304 304 302 300 302 303 302 301 301 302 301 301 301 301 300 300 300 299 299 299 299 299 298 298 297 297 297 298 297 297 297 297 298 298 299 299 300 300 300 300 301 301 301 299 299 299 299 300 299 298 298 298 297 297 297 297 296
307 305 308 307 305 304 303 304 305 306 307 306 307 305 306 306 305 306 307 306 305 304 303 303 303 304 304 304 304 304 304 303 304 304 303 302 303 303 302 302 302 301 301 301 301 300 300 300 299 299 299 298 298 298 297 296 296 297 297 296 296 296 297 296 297 297 298 299 299 299 299 299 299 299 299 299 299 298 298 298 297 296 296 297 297 296 296
305 305 305 305 306 306 308 306 306 306 305 307 306 306 306 305 304 304 306 306 304 303 303 302 302 303 303 303 303 303 304 303 303 302 302 302 303 302 302 301 302 301 302 301 301 300 300 300 300 299 299 298 297 297 297 296 296 296 296 296 296 296 296 295 295 295 296 297 297 297 297 298 297 297 297 297 297 297 296 296 296 296 296 295 295 294 295
306 306 306 306 305 305 306 307 306 307 307 307 307 307 307 306 305 304 305 304 305 302 302 302 302 302 304 302 303 303 303 302 303 303 302 303 302 302 302 301 301 301 302 301 301 301 300 300 300 299 298 298 298 298 298 297 296 296 296 297 296 295 296 295 295 294 294 294 294 294 294 295 296 295 296 296 296 295 295 295 295 295 295 295 295 294 294
Wind_Speed
1 2 6 6 4 5 2 1 1 2 1 3 7 3 4 6 8 4 12 13 13 13 13 12 10 9 8 6 6 7 6 6 7 8 9 10 11 12 12 13 12 14 14 13 15 15 15 16 15 14 13 12 10 9 10 9 10 11 9 5 8 5 8 9 7 10 12 12 11 12 13 13 14 14 14 13 12 12 12 13 14 15 15 15 15 15 14
4 2 3 1 2 2 5 6 3 2 5 3 1 1 3 2 6 12 12 10 12 9 13 12 9 9 10 6 1 4 6 6 6 7 9 10 11 12 12 12 12 12 13 13 13 14 15 16 16 15 14 13 12 10 10 11 10 11 11 12 11 7 9 10 7 8 7 8 8 11 12 12 12 13 14 13 14 14 13 14 12 11 12 13 15 15 15
5 4 4 7 5 3 6 6 5 3 5 4 4 2 3 4 8 9 10 10 9 9 11 10 9 5 8 9 5 6 4 4 6 7 8 9 10 11 11 11 12 12 12 13 13 13 13 15 16 14 13 13 13 13 12 10 11 11 9 9 11 7 3 3 10 12 8 10 10 11 10 11 12 12 12 11 11 11 12 13 12 10 12 14 15 15 16
7 6 6 5 6 6 8 8 7 7 8 8 6 7 6 6 7 7 8 9 9 7 9 13 10 8 9 7 7 6 2 5 5 5 8 9 9 10 10 11 11 12 12 13 13 13 13 13 14 14 13 14 13 13 12 13 11 8 7 6 5 6 7 6 8 12 10 9 9 10 11 11 12 12 12 12 11 12 14 15 12 14 15 14 13 15 14
5 9 4 5 4 7 9 12 11 9 7 6 6 3 4 3 4 9 9 8 7 9 9 10 10 12 8 7 5 6 4 3 4 4 6 7 8 9 9 10 11 12 12 12 12 12 11 10 10 12 13 11 12 11 11 12 10 10 8 7 6 5 4 5 2 5 13 12 10 10 11 12 11 12 12 13 13 13 15 14 13 13 13 14 14 14 15
4 7 5 3 7 9 5 5 8 10 8 6 6 7 6 4 5 2 6 6 11 8 4 6 9 5 10 6 4 2 2 3 2 3 6 6 6 8 9 9 10 10 10 10 11 11 11 11 11 10 9 11 10 10 10 9 9 9 8 7 7 6 5 5 6 4 7 14 13 12 11 11 12 13 14 14 14 14 13 13 13 13 15 15 13 13 13
5 6 4 7 9 6 9 5 8 5 5 2 3 1 5 6 2 7 9 10 13 10 10 1 1 5 5 4 9 13 7 0 1 2 3 5 5 7 7 8 10 9 10 11 11 11 11 10 10 9 9 10 10 10 10 9 10 9 8 8 7 7 7 5 5 6 6 10 13 13 10 11 11 13 13 13 14 13 13 14 13 13 14 15 14 14 15
3 3 6 6 4 9 6 7 4 6 2 3 4 3 3 3 4 4 8 6 6 6 2 5 3 5 3 2 2 3 9 6 2 5 3 4 6 7 7 7 7 8 9 10 10 10 10 9 10 9 10 9 9 10 10 9 10 9 9 9 9 9 9 8 7 6 8 9 8 10 10 10 10 12 11 12 12 12 12 13 13 12 13 13 14 15 15
7 6 7 6 8 7 8 7 7 5 5 7 8 6 10 10 5 6 6 9 9 8 8 6 7 4 4 6 7 9 7 6 3 0 3 4 5 6 6 7 6 6 8 8 8 8 9 9 10 10 10 9 9 9 10 10 10 10 9 10 11 11 11 10 10 10 9 9 10 10 7 9 9 8 9 10 11 10 11 11 13 13 13 14 12 14 15
6 7 7 8 8 9 10 7 9 6 5 5 2 4 5 8 8 5 6 8 8 8 5 6 3 3 5 6 7 7 7 6 6 2 2 2 3 5 6 5 5 6 7 8 8 7 9 7 9 9 9 10 8 8 9 10 10 10 10 10 11 11 11 12 11 11 11 11 10 9 11 7 7 5 5 7 9 8 9 9 11 13 13 12 13 13 14
6 8 7 5 6 2 9 11 10 8 5 3 2 5 6 9 9 6 7 7 8 4 6 5 3 4 6 2 7 5 6 3 3 2 3 5 6 6 6 6 7 7 8 8 9 8 8 8 9 9 8 9 8 9 9 9 9 10 10 10 11 11 11 12 12 12 11 11 11 8 6 10 5 5 2 2 3 1 3 6 9 10 11 11 13 13 14
7 6 7 7 6 5 7 9 8 7 4 5 6 8 5 13 9 7 7 8 8 5 3 1 3 3 5 7 3 6 1 3 2 3 4 5 7 7 8 8 8 8 8 8 7 8 9 9 9 9 8 8 8 8 9 9 8 9 10 10 11 12 12 12 11 10 10 11 11 10 5 5 3 4 6 5 6 2 6 7 9 9 8 8 11 13 15
7 8 7 7 3 9 11 10 9 7 5 4 6 7 7 6 9 6 6 8 6 5 5 4 4 4 5 5 1 3 5 5 5 6 6 7 7 8 8 9 9 9 9 8 8 8 8 8 9 8 7 8 9 8 9 9 9 10 10 10 11 11 12 13 12 11 10 9 11 9 7 1 0 4 5 6 5 6 5 5 6 8 9 9 11 11 11
9 8 10 8 2 5 8 7 8 8 5 6 5 9 8 8 9 7 5 7 5 5 3 2 3 3 4 7 6 5 6 7 7 7 7 7 8 8 9 9 9 9 9 9 9 9 8 10 8 7 8 9 8 9 8 9 10 9 10 11 10 10 11 12 12 11 10 9 8 7 7 7 4 4 4 5 5 6 5 4 7 9 9 8 7 8 8
7 6 9 6 8 7 8 10 7 5 7 3 8 7 7 6 7 5 5 3 5 3 3 3 1 4 4 5 7 7 7 8 8 8 8 8 8 8 8 9 9 9 9 9 10 11 10 10 9 8 9 10 10 9 9 10 9 9 9 10 11 11 10 10 11 12 10 10 8 7 7 6 8 7 4 4 6 5 6 7 8 9 10 8 8 8 8
6 8 9 4 2 8 9 7 4 8 1 5 7 7 7 6 4 4 4 4 4 3 2 1 2 2 3 4 3 3 5 6 7 8 8 8 8 8 8 9 9 10 10 10 11 11 10 10 9 9 9 9 9 10 11 9 9 9 9 10 10 11 11 10 10 11 11 10 8 7 7 6 7 7 6 4 5 6 6 7 7 9 10 11 11 11 9
7 4 2 6 2 6 6 4 6 1 6 5 3 1 4 4 3 3 2 2 5 4 2 2 2 4 4 3 3 5 5 6 7 8 9 9 10 10 9 9 9 9 10 12 12 13 12 12 10 10 9 10 11 12 10 9 9 9 9 9 10 11 12 11 10 10 10 10 9 7 7 7 7 7 7 6 4 4 6 8 9 10 9 9 8 9 10
7 9 7 1 3 2 4 4 1 2 6 4 3 3 3 4 3 2 2 2 3 4 4 3 3 4 3 3 5 5 5 6 7 7 8 10 10 10 10 9 9 10 11 12 12 13 13 13 12 10 10 11 12 11 10 9 10 10 10 9 9 11 12 11 11 10 11 11 10 8 9 6 6 6 6 7 6 4 2 6 8 9 10 10 10 10 10
3 5 6 10 9 7 6 5 4 4 4 5 4 3 4 3 3 3 2 2 2 2 2 4 3 4 4 5 4 4 4 6 6 7 8 9 10 10 11 10 10 10 10 11 12 13 14 13 12 12 12 11 12 11 11 11 10 9 10 10 10 10 11 12 12 9 9 9 9 10 9 7 5 6 5 5 4 3 4 5 6 6 7 9 10 10 11
9 7 2 3 5 6 4 5 6 7 6 6 5 3 3 3 3 3 3 4 5 4 5 5 5 4 5 4 4 4 5 5 5 7 8 8 9 10 11 11 11 11 11 11 12 13 13 13 13 13 12 12 12 12 12 12 11 11 10 10 10 11 12 11 11 10 9 10 10 8 9 9 9 7 6 5 4 2 4 4 4 6 8 8 8 8 9
8 10 11 8 7 8 8 8 7 6 8 10 9 7 6 6 6 6 6 5 5 4 4 2 4 4 5 4 4 5 5 5 6 6 7 8 9 10 11 11 11 11 11 12 13 14 14 14 14 14 14 13 13 13 12 12 11 11 11 12 11 13 12 10 10 10 9 8 8 8 9 8 9 9 8 8 7 7 6 3 3 5 7 6 6 6 7
8 7 6 6 10 9 7 9 10 11 9 10 11 10 10 10 9 8 8 7 6 6 4 3 4 5 4 4 4 6 6 6 6 6 7 8 10 11 11 11 12 13 14 14 14 14 13 13 14 14 15 14 13 13 12 12 11 11 11 11 12 12 11 9 9 10 10 10 9 8 8 9 9 9 9 9 9 8 8 7 8 8 6 8 9 7 7
9 6 6 7 7 7 8 8 4 6 8 10 11 12 12 12 11 8 9 9 7 6 5 4 4 4 4 5 6 7 6 6 6 7 9 10 10 10 11 13 14 14 15 15 15 16 14 13 14 14 15 15 14 13 13 12 12 11 11 11 12 11 11 10 9 8 9 10 9 8 8 8 8 9 10 8 8 13 13 13 12 14 14 14 15 14 11
11 11 11 11 9 9 9 9 9 8 7 8 10 9 10 10 9 9 10 9 9 7 6 6 4 3 4 6 6 7 7 7 7 8 9 10 11 11 12 12 14 15 16 17 17 17 15 14 13 14 15 15 14 15 14 13 12 11 10 10 11 11 11 11 11 10 9 9 10 9 8 8 8 8 9 10 9 7 14 16 16 16 16 15 14 14 14
6 8 12 12 10 10 9 10 10 10 9 9 10 10 10 9 10 9 10 9 8 8 6 6 6 4 5 7 6 7 8 8 8 9 10 11 10 11 11 12 14 14 15 16 15 15 16 16 15 14 15 14 14 15 14 14 14 13 12 10 10 11 11 12 11 12 11 9 9 9 10 9 10 9 9 8 10 10 7 10 18 17 16 15 15 16 15
7 7 10 13 14 12 10 10 11 11 10 10 11 11 10 10 9 9 10 8 9 9 8 7 6 7 6 6 7 8 8 9 10 10 10 9 10 11 11 12 13 14 15 15 16 16 17 18 17 16 15 14 14 14 15 14 14 13 13 11 10 10 10 10 11 11 11 11 11 10 9 9 9 10 10 10 9 9 11 11 9 10 13 17 16 14 15
6 5 7 12 13 14 12 12 10 9 12 13 14 12 12 12 9 9 9 10 10 8 8 8 8 7 6 6 8 8 9 9 10 9 9 11 11 11 12 12 12 15 17 16 15 15 17 17 16 16 17 15 14 14 14 14 14 14 13 12 9 11 16 15 11 12 11 11 11 10 10 10 10 10 10 9 9 9 9 10 11 11 10 8 11 13 6
7 7 7 9 10 11 12 11 10 12 13 13 12 13 13 11 10 10 11 12 10 7 7 8 9 7 7 7 7 8 9 9 9 9 10 11 11 10 11 12 12 14 14 14 14 13 14 14 15 16 16 14 13 14 14 15 14 13 12 11 10 10 11 12 12 11 11 10 10 10 10 11 11 11 10 9 9 9 9 10 11 11 10 9 8 7 10
7 7 7 9 11 12 12 12 9 11 12 12 12 12 12 13 12 12 12 12 9 8 8 8 7 7 8 7 7 7 9 9 9 10 10 10 10 10 10 11 12 13 12 12 11 12 13 12 13 14 15 14 14 14 14 14 14 13 11 9 9 10 10 10 10 10 10 9 10 10 10 11 11 11 10 10 10 10 10 10 9 10 10 10 9 8 6
6 7 8 10 11 12 13 13 12 13 12 10 12 12 13 14 14 12 11 10 10 10 9 8 6 7 8 7 7 8 8 9 9 9 10 9 9 9 9 10 11 11 10 10 11 12 11 10 12 13 14 14 14 14 14 13 11 10 10 10 9 10 11 10 10 10 10 11 11 12 11 11 10 11 12 11 10 10 10 10 10 10 10 9 9 9 8
9 9 11 11 12 13 15 15 13 13 12 10 10 11 13 14 14 13 13 11 9 9 7 5 6 7 7 7 7 7 7 8 9 9 9 9 9 8 8 9 9 9 10 10 10 10 10 10 9 8 10 12 13 12 8 6 6 7 9 9 9 11 12 11 8 10 12 12 12 11 10 10 10 11 11 11 11 11 10 9 10 9 9 8 8 8 9
10 11 11 10 10 12 14 13 13 10 11 11 11 13 13 14 15 15 13 11 10 10 8 7 8 7 6 6 6 6 7 7 8 8 9 9 9 8 8 9 9 9 10 10 9 9 9 9 10 10 11 11 11 11 8 7 7 8 9 8 9 11 11 10 9 9 9 11 11 11 10 10 10 10 10 11 11 11 10 10 10 10 9 8 7 7 6
10 11 10 10 10 10 12 13 13 12 12 12 10 9 8 10 13 13 11 9 8 7 7 8 7 5 5 5 7 6 6 7 6 7 8 8 8 9 9 8 8 9 9 8 9 9 9 8 9 10 11 10 10 10 10 9 8 9 9 9 10 10 11 12 11 11 12 12 12 11 10 9 9 9 10 11 11 11 11 11 11 10 10 9 8 7 4
9 9 11 12 11 11 10 9 11 12 10 9 8 4 1 6 6 6 6 9 9 8 7 6 4 4 5 6 6 6 7 6 6 6 6 7 8 9 9 9 9 9 8 8 8 8 8 9 9 8 9 10 10 10 10 10 9 8 9 9 10 10 11 11 11 11 11 12 11 11 11 11 10 10 10 10 10 11 11 12 11 11 10 10 10 9 4
10 11 11 12 12 11 10 9 8 9 10 10 10 9 8 6 4 4 5 6 7 5 3 2 3 4 4 4 5 5 5 6 7 7 6 7 8 9 9 9 9 8 9 8 8 7 9 10 9 10 11 10 10 10 9 10 10 9 10 10 10 10 11 11 11 11 12 12 11 11 11 11 10 9 9 10 10 11 11 11 11 11 10 10 10 9 9
11 11 11 11 11 10 10 10 10 10 10 10 10 9 8 7 8 8 7 7 5 5 3 4 4 4 2 2 4 4 5 6 6 7 7 7 7 8 9 9 8 8 8 9 7 8 10 10 13 18 12 10 10 10 10 10 9 9 9 10 10 10 10 10 11 11 12 12 12 11 11 11 10 9 9 10 10 11 11 11 11 10 10 9 9 8 8
12 13 12 12 11 11 11 10 8 7 7 7 8 8 9 11 13 12 12 9 6 5 4 4 3 3 1 1 2 3 4 5 5 6 6 7 6 8 8 9 8 7 8 8 7 9 10 9 14 18 13 9 10 10 11 14 9 9 10 10 10 10 10 10 10 10 11 10 10 11 12 11 9 8 8 8 9 10 10 10 10 9 9 9 9 8 7
12 13 14 13 11 11 10 8 7 7 7 9 8 9 12 12 13 10 9 8 7 5 5 4 4 2 1 1 2 2 3 4 5 6 6 7 6 7 8 8 7 6 7 8 9 10 9 12 16 12 9 9 9 9 12 17 16 11 9 10 10 10 11 11 11 11 10 10 10 10 10 9 9 9 8 8 8 8 9 8 8 8 9 9 8 7 6
13 12 12 12 10 9 7 4 3 3 6 8 10 9 10 12 10 10 9 8 6 6 6 5 4 3 1 1 2 2 2 4 5 6 6 7 7 7 7 7 5 6 7 9 10 9 9 10 10 10 9 9 10 10 12 15 15 11 11 10 11 10 11 10 10 10 10 10 10 10 10 9 9 9 8 7 7 7 8 8 8 8 8 8 7 7 6
12 12 12 12 11 9 5 1 4 5 1 5 9 10 11 11 10 10 9 8 6 5 5 4 3 3 1 0 1 1 2 3 4 5 6 6 7 7 7 6 7 8 8 11 10 9 11 14 10 7 8 8 9 9 10 14 15 11 11 11 11 11 10 10 10 10 10 9 10 11 10 10 10 9 9 7 7 7 7 8 8 7 7 7 7 6 5
13 12 12 11 11 9 4 5 6 8 9 7 6 3 8 9 11 10 9 8 7 6 5 3 3 1 0 0 0 1 2 3 4 5 6 6 6 6 7 7 8 8 9 10 10 10 10 9 9 8 8 9 9 11 11 14 13 11 11 11 10 11 10 10 10 10 10 9 8 9 10 10 10 10 8 7 6 6 7 7 7 7 7 6 6 5 5
13 13 12 11 9 6 6 7 9 10 9 5 7 6 5 9 8 8 8 7 6 5 5 3 4 2 2 1 0 1 2 3 4 5 6 5 5 6 7 7 8 8 11 12 11 10 8 7 8 8 9 10 11 15 18 14 11 10 9 9 9 9 10 10 9 9 9 9 9 8 8 9 9 9 8 7 6 6 6 6 7 7 6 6 5 5 4
12 12 11 9 9 7 8 8 9 12 12 9 11 9 8 9 9 9 9 9 8 6 5 6 5 3 2 1 0 1 2 3 5 5 6 4 3 2 5 7 8 8 11 9 9 8 8 7 8 8 15 14 13 18 18 11 10 9 9 9 9 9 9 9 9 9 9 9 8 8 8 9 8 8 8 7 6 6 6 6 6 6 6 5 5 4 3
14 12 10 9 8 7 8 10 11 12 12 10 11 12 12 10 11 11 10 9 8 7 6 6 5 3 1 1 1 2 2 3 4 5 5 5 4 3 6 6 7 8 11 8 7 7 8 8 8 13 17 18 18 18 12 9 9 9 8 9 9 9 9 9 8 7 7 8 7 7 7 7 7 7 7 7 7 6 6 5 5 5 5 5 4 3 3
12 11 9 9 7 8 9 11 13 13 12 11 11 10 10 10 9 9 9 8 7 7 5 4 4 2 2 0 1 2 2 2 3 4 6 5 5 5 6 8 7 8 9 10 7 7 7 9 12 17 16 18 17 18 9 7 8 8 9 9 8 8 8 9 9 7 7 7 7 6 6 6 6 7 7 6 6 6 5 5 5 5 5 5 4 4 4
11 11 10 9 7 7 7 8 8 10 11 12 11 10 9 8 9 8 8 8 8 6 5 4 3 1 2 2 2 0 1 1 2 3 4 4 5 5 5 6 8 8 10 10 7 7 7 13 15 15 17 17 17 11 7 8 8 8 8 8 8 8 6 7 8 7 6 6 6 6 5 5 5 5 5 5 4 3 3 3 4 4 4 4 4 4 4
6 9 9 7 6 8 8 7 4 10 13 12 11 9 8 9 8 7 7 7 6 5 5 4 3 3 3 2 2 1 2 1 2 2 4 4 4 4 5 4 6 9 8 7 7 6 7 9 12 15 15 15 14 8 8 8 8 8 8 8 8 8 8 6 7 7 6 6 6 6 4 4 4 4 4 3 3 2 2 1 2 3 3 4 4 5 5
9 8 6 5 6 10 13 12 9 10 11 9 9 8 9 9 8 7 8 7 6 5 5 4 3 4 3 3 3 1 2 4 3 2 3 5 5 4 5 5 5 8 9 7 8 6 10 10 11 13 14 13 9 8 8 8 8 8 8 8 7 7 8 7 6 6 6 6 8 6 4 3 3 4 4 4 4 4 3 3 3 3 3 3 3 3 4
4 4 4 4 8 13 5 9 9 7 6 5 9 9 8 9 8 8 6 6 6 5 4 3 3 2 2 3 2 2 2 2 4 4 4 4 4 5 5 4 3 7 8 6 7 6 7 8 11 14 14 11 8 8 8 8 8 9 9 8 8 7 6 6 6 6 6 6 5 6 6 5 3 3 4 4 4 4 4 4 4 4 3 3 4 5 5
2 2 4 6 9 11 10 7 4 3 3 7 9 8 8 7 7 6 6 6 5 4 3 4 3 2 2 3 3 2 2 2 3 3 3 3 4 4 4 5 5 5 6 7 6 6 7 10 11 11 11 9 9 8 8 8 7 8 8 8 9 7 7 8 9 10 8 6 6 6 5 6 6 6 6 5 5 4 4 4 5 6 9 7 6 6 7
3 4 6 8 9 9 8 8 7 4 2 4 7 7 8 7 6 6 5 5 5 4 4 4 3 3 3 3 3 2 1 1 2 3 3 3 3 3 4 4 5 5 5 6 6 6 6 7 7 9 9 8 8 8 8 8 7 8 9 9 9 7 7 8 7 7 8 8 7 6 6 6 6 6 5 6 6 5 5 5 5 4 5 5 6 6 6
9 9 10 9 9 9 6 5 5 0 5 5 5 6 5 5 7 5 5 4 2 4 3 3 3 2 2 2 1 2 1 1 0 1 2 3 4 4 3 4 4 4 4 6 5 6 5 5 6 7 8 7 8 7 8 9 8 7 8 9 8 8 8 8 8 7 7 8 7 7 8 8 7 6 7 6 6 6 6 6 6 6 6 5 5 6 6
Wind_Direction
278 355 26 10 358 5 68 325 352 180 83 256 238 285 345 333 286 185 151 147 144 151 139 148 134 129 118 83 90 96 81 99 92 64 50 53 52 53 51 44 36 29 31 26 19 18 18 15 15 14 12 14 20 25 13 0 7 25 2 338 294 256 266 245 219 201 201 213 217 220 215 207 211 218 221 218 215 213 212 210 209 214 216 218 209 204 207
243 220 247 156 275 217 249 240 202 234 242 180 235 189 2 16 112 130 154 168 145 137 145 141 126 115 115 117 70 110 112 86 77 73 54 47 45 44 45 43 37 33 31 30 24 20 15 16 12 13 9 5 5 11 19 9 16 12 12 1 5 5 295 291 274 234 223 224 214 230 220 213 208 212 218 219 218 219 219 217 215 212 216 217 220 210 206
192 212 221 233 235 260 255 215 213 220 226 214 219 230 105 124 153 165 156 158 158 125 119 120 125 151 126 132 114 87 83 78 58 62 55 43 40 41 39 38 36 32 31 27 26 22 20 14 13 11 3 3 0 1 3 17 19 17 27 4 331 329 19 308 280 269 247 235 228 228 223 217 213 213 217 219 217 215 215 221 220 213 219 221 220 221 212
200 174 220 203 233 241 249 233 209 216 208 217 183 222 172 215 153 160 163 175 163 129 134 126 158 178 160 131 126 118 32 77 90 52 44 35 37 37 32 30 31 28 26 25 21 21 17 16 17 8 3 1 1 1 359 4 7 27 21 322 319 330 347 344 326 292 259 240 233 237 232 222 217 214 216 218 220 216 217 218 214 220 219 222 226 224 221
228 136 192 208 215 237 235 231 218 202 210 234 207 196 150 297 148 187 190 202 146 164 180 161 169 170 151 150 142 109 92 348 77 83 65 30 30 36 26 27 29 26 21 20 22 16 15 13 21 17 5 358 1 1 1 358 1 3 359 342 346 342 312 300 338 295 279 252 232 234 234 226 221 218 216 216 216 218 218 218 216 214 219 219 220 225 230
181 132 185 192 223 227 226 31 180 189 200 185 190 165 192 155 245 22 45 81 131 145 186 187 158 210 123 136 114 62 130 151 71 88 78 41 44 28 29 20 28 21 16 17 16 12 9 7 16 19 8 357 360 355 353 357 7 6 358 349 345 344 331 327 311 293 257 271 255 232 231 233 227 221 219 216 215 216 217 214 216 217 219 221 221 221 226
241 151 168 215 223 217 72 87 70 75 55 132 217 49 169 151 132 131 146 142 135 156 165 235 260 96 97 188 191 173 125 83 263 58 73 63 46 41 31 24 22 19 11 9 8 8 5 1 7 5 10 4 356 350 350 3 358 360 1 354 354 339 333 323 308 319 295 248 248 246 235 237 230 227 223 221 220 220 218 216 213 215 218 218 220 222 224
267 205 199 215 199 85 116 84 110 82 184 182 186 181 156 169 192 158 155 170 132 115 147 142 152 159 225 164 230 275 140 108 95 309 57 26 36 41 31 22 21 19 12 4 1 359 350 358 1 1 1 0 359 353 341 358 352 352 356 354 353 350 341 338 325 314 310 308 293 264 251 242 239 237 232 231 228 227 232 227 222 220 219 224 223 221 224
253 224 223 217 101 176 139 176 153 185 178 178 208 221 193 180 186 182 162 153 158 170 160 155 158 178 199 218 174 195 140 134 97 6 25 22 17 33 29 16 17 26 9 355 357 345 349 355 359 355 349 352 359 356 349 349 347 345 356 353 349 346 341 338 337 330 317 310 316 325 311 271 278 274 274 261 249 239 239 245 241 227 225 225 225 227 226
244 263 241 210 194 232 194 156 148 142 90 46 73 299 120 151 146 157 143 151 146 152 159 137 124 178 221 223 187 166 140 163 136 302 341 355 17 18 7 354 355 24 12 349 341 346 337 352 358 343 343 346 350 357 351 347 341 344 355 351 346 341 336 336 333 330 327 320 315 319 332 332 276 259 272 291 297 293 296 293 271 257 247 242 233 229 231
203 233 257 238 239 82 72 112 116 98 107 143 55 252 215 157 149 161 159 171 159 177 158 139 205 230 225 167 103 96 77 59 46 314 2 330 349 343 339 335 341 8 359 338 326 330 332 348 347 328 337 339 346 353 351 342 338 340 345 344 339 336 332 332 330 330 327 330 328 330 326 330 23 322 266 239 260 354 300 279 290 309 305 289 274 247 234
248 245 233 240 252 164 138 119 132 126 118 124 223 225 198 137 158 159 172 150 155 168 126 143 250 249 221 102 74 59 38 24 330 346 348 341 328 324 320 314 349 345 329 311 316 324 332 345 323 317 330 335 344 346 345 336 338 338 342 341 333 327 327 324 328 330 330 332 332 340 336 343 27 323 303 271 263 214 195 203 229 234 250 254 269 278 266
223 240 254 259 141 112 140 143 125 130 123 227 225 236 120 151 123 133 140 134 140 131 162 202 229 192 339 43 29 1 339 326 348 354 340 323 325 318 320 326 347 317 309 311 320 324 324 316 308 320 335 327 331 334 333 333 338 337 338 335 329 329 326 324 324 328 334 335 333 332 331 332 86 284 294 297 268 256 263 277 270 254 237 238 239 243 256
243 219 238 237 257 88 131 134 133 125 167 205 226 82 115 118 119 120 120 111 137 140 225 183 266 5 353 331 334 345 342 343 336 335 337 341 335 326 319 325 309 304 303 310 308 309 309 298 308 326 326 320 320 316 317 319 329 333 331 326 326 327 326 322 316 323 333 335 323 314 313 318 315 261 272 284 273 250 243 233 256 263 261 250 254 260 272
244 237 245 240 244 150 181 132 147 152 240 65 99 131 111 132 118 140 139 190 140 191 174 195 291 285 310 325 330 332 327 330 330 331 339 333 335 332 321 307 313 313 311 311 309 305 304 310 325 322 316 314 311 311 304 311 316 321 325 323 325 323 321 320 319 318 323 329 324 311 310 315 305 310 314 300 286 258 256 262 258 260 262 261 255 256 255
240 218 222 231 4 121 150 163 238 157 243 103 147 135 157 134 152 185 165 181 187 145 223 284 255 285 299 284 279 311 310 308 318 318 323 327 325 322 316 317 316 323 313 306 302 302 308 315 311 307 304 303 301 300 301 304 306 311 315 318 320 320 317 317 319 314 319 320 317 303 294 288 285 291 296 295 289 283 267 258 269 267 263 263 264 263 262
248 252 344 70 124 145 163 195 82 51 122 128 105 357 30 158 158 146 268 141 146 202 209 218 249 254 248 274 306 302 316 304 308 323 323 322 319 316 322 321 328 314 307 309 308 304 302 301 305 305 301 292 292 291 296 303 301 303 305 306 313 316 317 316 315 316 314 312 307 306 305 303 299 293 286 289 288 320 333 304 278 269 266 261 261 265 271
280 289 288 61 256 128 169 195 113 144 150 156 171 210 216 213 278 133 216 118 173 155 165 226 225 244 280 286 285 293 308 314 316 314 311 311 315 317 317 318 323 323 311 305 301 303 304 304 301 295 292 292 289 292 298 298 299 291 291 303 312 311 311 313 313 313 314 314 313 322 317 297 289 282 285 290 287 292 291 291 303 290 279 271 269 266 264
277 252 217 227 221 210 211 248 180 187 186 188 188 206 220 252 183 197 202 215 180 220 216 219 242 263 263 273 288 307 299 298 299 299 308 309 309 312 311 314 316 309 311 304 303 303 301 303 302 300 296 293 295 296 294 289 288 296 305 305 301 300 304 309 308 307 310 313 322 316 304 306 295 283 278 280 265 255 265 253 263 298 313 298 277 266 267
241 253 98 49 337 306 277 231 219 195 207 210 203 242 253 229 208 215 207 178 218 210 220 214 220 235 259 277 289 284 294 298 305 304 298 301 303 303 306 305 305 305 301 303 302 301 298 300 298 297 295 292 288 288 289 292 295 296 291 291 297 299 302 304 303 306 309 310 307 308 323 324 314 304 300 297 286 256 261 254 244 248 256 271 293 306 308
245 255 265 259 236 225 242 250 245 240 207 209 212 214 226 205 221 239 236 224 243 223 243 201 236 256 275 281 275 280 293 291 298 300 302 298 297 298 295 299 301 299 302 298 298 296 296 297 296 293 292 290 290 288 286 283 283 282 288 294 293 293 296 299 301 305 301 302 308 312 308 305 303 319 318 307 313 310 297 269 233 266 275 267 262 266 267
242 253 257 240 249 240 214 222 241 242 236 247 251 215 218 234 229 230 243 230 223 246 253 247 243 254 266 273 298 298 293 293 295 301 301 301 297 296 297 298 301 299 297 297 295 294 291 291 290 290 289 287 285 284 283 280 281 282 286 288 290 290 289 292 298 299 307 311 309 305 304 307 309 303 308 305 274 282 292 298 289 268 239 256 267 275 268
264 293 298 319 313 298 291 291 288 307 275 247 243 245 250 249 243 237 237 239 225 218 235 259 279 285 278 288 295 287 295 311 309 298 296 298 299 298 301 300 297 296 296 295 294 291 291 290 287 285 284 281 280 279 277 277 277 278 282 284 284 285 289 287 294 309 304 302 305 304 298 296 295 304 305 305 249 238 245 252 258 264 263 256 259 257 245
282 283 289 297 288 281 286 288 283 263 255 249 251 258 251 246 245 232 231 236 248 244 243 236 239 262 273 298 304 307 307 298 298 299 299 301 303 301 297 292 291 293 294 294 294 294 292 289 287 285 283 281 278 275 273 270 266 263 263 270 277 282 286 295 300 297 296 298 297 296 300 298 298 297 300 303 307 253 234 241 253 254 257 260 259 253 245
287 320 310 302 295 286 276 273 261 257 258 257 254 249 246 232 226 225 226 230 236 246 247 256 254 268 298 285 283 291 291 298 301 304 305 297 291 289 288 288 293 295 296 295 293 293 291 290 288 283 281 281 282 282 281 275 270 268 265 265 273 278 283 288 290 294 295 296 295 297 298 300 298 298 297 298 299 310 296 226 236 240 246 251 256 266 262
296 295 305 300 287 277 273 267 258 253 247 243 248 249 251 250 230 216 218 223 234 237 252 259 269 271 273 290 297 295 301 303 307 309 296 294 296 298 298 304 305 302 300 300 298 293 287 285 285 284 282 277 272 268 267 270 268 262 261 257 262 272 281 287 290 290 293 289 289 289 292 294 299 299 297 296 298 300 302 307 289 257 245 249 252 259 265
260 265 280 289 282 275 262 257 262 251 253 251 248 243 243 241 229 233 225 220 231 247 249 258 277 291 297 292 294 296 296 300 299 290 292 298 300 301 305 305 311 313 307 296 287 285 288 286 284 282 279 277 278 277 274 271 270 269 263 262 262 269 273 279 280 282 280 280 284 289 293 292 291 293 293 295 293 287 287 293 296 295 301 276 239 214 251
271 255 246 260 271 273 278 278 278 273 263 257 252 241 230 233 226 218 225 234 230 224 242 259 270 263 262 273 293 296 294 292 293 295 298 299 299 303 308 312 311 308 304 298 292 286 284 286 285 282 282 283 277 270 269 269 267 263 259 257 263 270 278 278 277 277 283 289 288 291 292 291 293 294 295 291 285 283 284 282 283 290 294 294 302 287 268
266 268 257 248 255 264 270 273 280 268 259 247 240 235 228 223 218 215 220 231 232 224 234 237 238 252 269 279 279 282 287 288 292 300 306 301 300 304 309 312 314 309 307 316 318 310 297 289 283 283 284 282 278 275 274 271 266 259 255 259 268 272 275 282 289 290 290 295 288 285 292 293 289 286 284 280 279 282 283 284 286 294 295 302 300 296 243
306 299 293 285 282 279 274 267 258 257 257 254 242 234 227 221 217 209 208 215 220 227 231 233 244 267 282 287 281 282 285 288 294 298 296 300 306 312 314 317 313 307 315 331 339 336 332 320 309 299 295 291 283 279 278 274 269 265 265 271 279 280 280 283 293 301 297 289 286 291 285 277 273 271 274 277 283 286 286 284 286 287 289 294 300 296 297
297 292 291 290 283 274 266 264 263 255 246 238 240 234 221 219 219 211 217 218 221 224 219 239 261 263 263 270 282 287 283 289 295 292 295 301 304 309 318 320 316 319 324 327 331 331 330 329 335 343 348 347 326 303 292 279 275 271 270 275 277 275 271 267 263 272 280 280 279 279 280 280 281 284 284 284 284 283 283 286 284 280 283 290 296 304 308
297 296 293 293 298 289 274 256 249 249 252 242 228 226 215 207 208 211 207 204 211 220 224 233 244 251 265 278 279 278 284 296 300 302 303 303 305 311 317 317 316 318 319 320 323 328 330 332 337 341 342 344 340 336 326 304 296 289 290 294 291 287 283 280 276 265 268 275 278 277 275 277 278 281 284 283 284 285 288 289 287 287 287 286 287 291 328
314 308 305 312 311 306 292 275 255 239 228 226 231 236 234 220 216 210 203 192 200 204 222 236 238 247 265 267 267 271 283 292 293 295 300 308 317 315 310 310 310 313 316 320 324 327 329 334 334 333 336 338 332 324 319 313 306 299 295 290 287 286 287 288 284 286 281 277 275 273 272 274 278 278 282 287 286 286 286 284 285 289 288 288 290 296 63
310 305 307 307 305 303 293 287 275 260 238 225 216 175 136 287 265 211 186 199 202 206 221 239 259 273 261 264 267 282 292 296 298 310 324 318 313 311 312 310 311 316 323 321 324 333 338 336 332 326 331 331 325 317 310 308 302 295 288 286 284 283 282 281 278 278 278 276 277 281 279 276 272 276 278 279 282 285 286 285 285 286 285 284 285 287 86
299 300 300 299 300 298 286 262 251 251 236 218 211 196 185 181 197 210 200 203 205 211 209 221 242 250 259 257 285 296 307 302 308 311 320 321 316 314 309 308 311 315 317 326 327 335 341 329 345 348 335 320 309 305 303 303 305 302 302 297 295 290 287 283 284 281 282 282 284 283 279 276 276 283 286 287 288 284 282 281 283 283 284 286 286 289 293
298 298 299 301 300 299 288 277 265 254 247 233 216 199 186 177 184 147 141 197 197 149 157 212 228 234 238 293 299 301 312 311 310 312 315 323 322 318 315 312 316 319 323 321 330 347 338 324 338 339 328 312 306 302 305 306 309 311 305 302 297 294 290 287 285 283 280 281 281 280 277 278 281 284 286 283 281 281 280 281 282 283 286 287 289 294 295
298 299 296 295 295 297 294 282 272 269 255 231 208 192 185 189 183 171 176 187 162 157 175 198 202 194 243 288 286 295 308 311 312 317 317 316 320 322 318 318 323 328 322 315 335 334 324 326 337 332 325 318 317 320 318 324 322 315 308 302 295 289 286 284 283 283 285 286 285 283 282 281 276 274 274 274 273 274 279 281 285 289 288 288 291 291 296
287 289 291 290 288 290 290 293 281 254 226 215 204 201 192 190 181 165 149 153 158 162 166 175 170 177 196 203 263 320 322 330 322 324 318 319 326 327 323 329 333 327 321 324 332 323 324 332 332 325 315 315 316 317 315 319 321 316 306 299 292 290 289 289 288 285 288 289 289 288 286 282 279 275 274 275 278 282 281 283 285 286 287 290 292 296 298
284 285 282 284 285 282 286 294 289 249 205 196 203 184 173 176 140 127 137 146 160 162 172 168 159 164 166 269 326 358 339 329 332 333 334 332 334 332 326 328 338 338 325 324 315 314 325 333 328 324 320 320 320 319 317 315 317 316 303 291 290 285 286 283 286 288 288 289 286 286 287 286 281 279 277 277 281 285 282 283 286 287 287 287 290 293 301
288 284 282 285 285 279 275 247 57 50 54 200 156 158 160 139 135 145 150 154 155 173 159 143 175 167 165 77 317 317 354 348 347 346 344 339 337 337 331 336 2 349 341 336 330 325 326 327 326 332 325 327 324 319 315 316 316 305 297 292 287 286 284 285 284 284 284 286 287 289 284 282 280 278 276 277 282 282 284 286 283 282 283 286 290 298 305
281 281 282 284 284 284 242 164 107 74 62 68 105 157 147 148 142 143 146 150 157 156 152 155 163 138 226 196 336 9 355 357 350 348 348 338 338 339 333 333 358 344 346 340 332 328 327 325 332 329 335 328 320 320 318 315 311 297 293 289 287 286 283 283 282 285 285 289 290 291 289 289 289 286 283 282 279 283 286 285 284 285 286 288 290 297 301
275 275 277 280 278 259 205 173 132 113 100 104 102 96 118 132 140 146 138 143 152 163 162 147 36 5 132 157 124 344 6 5 355 348 349 355 354 346 338 342 345 342 351 334 333 332 332 339 348 341 339 329 319 325 325 315 302 298 297 299 295 293 288 290 289 287 286 286 287 288 293 292 290 287 288 286 286 286 285 286 287 288 287 289 289 297 308
269 267 266 268 264 238 210 176 150 139 141 157 146 146 154 150 145 145 154 166 168 165 169 144 145 203 206 201 328 338 6 3 349 348 342 16 93 36 346 340 340 351 354 336 338 329 336 335 338 344 338 332 325 323 316 308 306 307 306 303 300 299 293 293 293 294 293 288 288 290 289 287 290 292 293 293 291 286 284 286 288 291 294 298 303 309 314
269 258 256 256 262 248 202 175 160 152 156 169 169 160 164 158 160 160 164 164 163 165 168 162 171 185 162 329 310 359 10 6 347 343 337 341 332 27 42 356 351 352 1 348 341 334 337 340 343 338 333 331 329 323 314 311 316 314 314 311 307 304 304 303 303 303 297 293 293 294 292 294 295 291 291 292 289 288 284 288 293 299 300 303 308 316 322
263 254 248 242 217 212 210 181 174 165 164 165 164 169 164 161 161 164 160 160 159 157 156 160 159 169 158 109 356 26 11 349 351 345 336 346 336 351 7 348 1 358 356 347 338 340 339 344 342 338 336 333 330 322 320 333 327 323 320 317 318 319 318 314 308 308 316 315 308 299 298 301 293 290 289 291 295 295 298 305 308 311 312 314 321 334 345
250 251 243 226 223 218 183 172 178 169 160 161 161 161 164 163 161 161 161 161 155 159 155 149 137 116 78 135 158 232 109 1 6 5 357 355 357 347 5 3 357 4 350 342 352 354 348 347 347 345 339 336 335 325 340 338 337 333 334 332 331 328 327 327 328 322 321 317 316 318 320 312 304 304 302 306 326 342 350 337 318 330 336 343 352 7 19
257 253 242 228 201 190 175 147 213 177 167 164 157 157 157 154 162 165 159 156 151 143 137 138 122 75 68 68 37 356 316 303 107 46 344 6 12 7 13 1 355 3 351 352 6 358 3 352 352 345 342 340 340 342 347 345 346 344 346 347 346 342 339 339 338 338 333 324 315 311 321 344 349 349 344 345 336 336 338 348 345 360 15 19 20 22 27
214 215 214 212 199 164 158 161 202 172 160 159 153 146 152 154 157 155 159 153 151 147 154 148 106 101 93 67 66 59 356 332 314 53 8 3 11 13 359 2 7 357 344 350 5 31 31 9 358 353 345 344 351 359 352 351 352 353 349 349 345 349 347 348 350 343 343 347 343 344 349 15 11 4 11 20 26 28 29 25 33 35 35 36 49 46 55
236 239 229 213 163 134 151 174 174 154 152 166 151 144 149 151 150 151 157 151 151 158 159 125 119 115 83 70 26 33 61 350 344 8 3 1 359 356 2 2 19 4 348 354 358 355 26 12 2 1 352 353 0 2 1 358 356 0 7 2 2 357 349 350 354 340 341 0 6 354 1 12 17 34 36 35 43 45 56 58 50 50 59 60 61 64 68
210 196 158 155 144 146 154 142 117 120 162 181 137 143 152 156 158 162 153 158 156 171 159 144 130 115 122 121 100 70 12 350 16 13 5 1 357 343 355 358 7 6 357 346 1 359 17 9 8 9 2 2 4 3 7 2 1 3 10 12 13 10 8 2 358 359 354 0 8 18 12 10 17 25 28 27 37 45 41 50 56 60 57 54 54 55 57
81 115 119 113 106 113 98 103 109 116 272 266 144 153 158 168 151 161 160 157 153 176 171 152 145 138 125 115 115 90 57 302 0 339 333 358 1 349 349 1 6 359 356 351 1 1 1 5 7 4 6 8 6 7 6 4 2 6 10 14 16 15 9 9 10 5 5 10 7 11 13 16 25 25 21 25 30 32 41 46 50 42 52 61 60 56 52
85 80 83 83 78 74 65 59 79 54 225 185 145 154 169 142 139 154 163 189 156 156 162 160 141 117 115 110 78 84 78 26 315 286 342 322 341 348 6 356 353 6 354 358 3 6 5 11 13 17 7 7 10 8 14 14 14 12 10 10 18 22 23 23 23 20 16 20 20 17 20 20 17 23 26 18 29 33 38 35 43 53 55 58 69 68 64